User: anonymous   Login
Location: Cicognara
(44.9500°N, 10.4667°E)
Time: 06:30:28
(UTC+00:00)
Language:

FALCON 9 DEB - Orbit

View from above orbital plane
View from above orbital plane
View from above satellite
View from above satellite

Ground track
Ground track

The orbit data is extracted from the following two-line orbital elements,

1 46085U 20055BL  21263.80713762  .00019419  00000-0  17661-3 0  9991
2 46085  53.0082  88.8454 0008971 195.3308 164.7437 15.67964252 68603
Epoch (UTC): 20 September 2021 19:22:16
Eccentricity: 0.0008971
inclination: 53.0082°
perigee height: 358 km
apogee height: 371 km
right ascension of ascending node: 88.8454°
argument of perigee: 195.3308°
revolutions per day: 15.67964252
mean anomaly at epoch: 164.7437°
orbit number at epoch: 6860

The dashed part of the orbit path shows where the satellite is in the earth's shadow,  

DLR